Location: Hebron
(33.0265°N, 96.8636°W)
Time: 01:22:25
(UTC+00:00)

Cosmos 1812 - Pass Details

Date: 08 July 2022
Orbit: 508 x 515 km, 82.5° (Epoch: 08 August)

Event Time Altitude Azimuth Distance (km) Brightness Sun altitude
Rises 06:46:02 0° 5° (N) 2,627 7.3 -34.4°
Reaches altitude 10° 06:48:21 10° 15° (NNE) 1,735 6.1 -34.4°
Enters shadow 06:48:50 13° 19° (NNE) 1,561 5.8 -34.4°
